Flag for Germany Weather past 2 weeks in Hoyerswerda, Saxony, Germany

Now
68 °F

Partly sunny.


Feels Like: 68 °F
Forecast: 53 / 67 °F
Wind: 6 mph from West

Location: Cottbus

Current Time: Jul 29, 2015 at 2:17:18 PM

Latest Report: Jul 29, 2015 at 2:00 PM


Visibility: 31 mi

Pressure: 29.71 "Hg

Humidity: 48%

Dew point: 48 °F

Location of HoyerswerdaLocation

Historic Weather in Hoyerswerda — Graph

°F

Hoyerswerda temperature yesterday

Maximum temperature yesterday: 71 °F (at 4:00 PM)
Minimum temperature yesterday: 59 °F (at 2:00 AM)
Average temperature yesterday: 64 °F

Past Weeks' High & Low Weather Summary

 TemperatureHumidityPressure
High90 °F (Jul 17, 7:00 PM)100% (Jul 15, 6:00 AM)30.10 "Hg (Jul 15, 6:00 AM)
Low55 °F (Jul 27, 12:00 AM)30% (Jul 25, 5:00 PM)29.58 "Hg (Jul 27, 3:00 PM)
Average70 °F67%29.87 "Hg
* Reported Jul 14 1:00 PM — Jul 29 1:00 PM, Hoyerswerda, Weather by CustomWeather, © 2015

Note: Actual official high and low records may vary slightly from our data, if they occured in-between our weather recording intervals... More about our weather records

Advertising

Hoyerswerda weather history for previous 24 hours

 ConditionsComfort  
Time TempWeatherWind HumidityBarometerVisibility
1:00 PM
Wed, Jul 29
66 °FOvercast.6 mph52%29.73 "Hg34 mi
12:00 PM65 °FOvercast.7 mph52%29.74 "Hg28 mi
11:00 AM65 °FOvercast.7 mph51%29.75 "Hg31 mi
10:00 AM65 °FScattered clouds.8 mph49%29.75 "Hg13 mi
9:00 AM64 °FSunny.7 mph47%29.76 "Hg15 mi
8:00 AM62 °FPassing clouds.3 mph60%29.77 "Hg34 mi
7:00 AM60 °FOvercast.2 mph64%29.76 "Hg37 mi
6:00 AM59 °FOvercast.2 mph66%29.76 "Hg34 mi
5:00 AM59 °FOvercast.3 mph63%29.76 "Hg43 mi
4:00 AM57 °FOvercast.2 mph71%29.76 "Hg25 mi
3:00 AM58 °FOvercast.2 mph66%29.75 "Hg40 mi
2:00 AM61 °FOvercast.3 mph57%29.75 "Hg40 mi
1:00 AM62 °FOvercast.3 mph59%29.75 "Hg43 mi
11:00 PM
Tue, Jul 28
62 °FOvercast.3 mph65%29.73 "Hg43 mi
10:00 PM61 °FOvercast.2 mph71%29.72 "Hg37 mi
9:00 PM62 °FOvercast.1 mph66%29.72 "Hg37 mi
8:00 PM65 °FLight rain. Overcast.2 mph57%29.71 "Hg40 mi
7:00 PM68 °FOvercast.6 mph47%29.70 "Hg43 mi
6:00 PM69 °FOvercast.7 mph44%29.68 "Hg31 mi
5:00 PM70 °FOvercast.6 mph42%29.67 "Hg31 mi
4:00 PM71 °FPassing clouds.6 mph36%29.67 "Hg25 mi
3:00 PM70 °FPassing clouds.6 mph42%29.67 "Hg34 mi
2:00 PM69 °FOvercast.6 mph42%29.67 "Hg28 mi
Weather by CustomWeather, © 2015

See weather overviewHow to use our weather pages